| time (UTC) | temp F | wind direction | speed knots | gust knots | rain 1hr in | rain 24hr in | rain mn in | humidity % | barometer mb |
| 20260504130159 | 69 | 30 | 3.5 | 6.1 | 0.00 | 0.00 | 0.00 | 85 | 1014.0 |
| 20260504120157 | 69 | 36 | 3.5 | 4.3 | 0.00 | 0.00 | 0.00 | 88 | 1014.0 |
| 20260504110154 | 64 | 36 | 3.5 | 5.2 | 0.00 | 0.00 | 0.00 | 88 | 1014.0 |
| 20260504100152 | 65 | 37 | 3.5 | 4.3 | 0.00 | 0.00 | 0.00 | 86 | 1013.0 |
| 20260504081149 | 67 | 43 | 2.6 | 4.3 | 0.00 | 0.00 | 0.00 | 78 | 1014.0 |
| 20260504080149 | 66 | 43 | 2.6 | 4.3 | 0.00 | 0.00 | 0.00 | 78 | 1014.0 |
| 20260504070146 | 68 | 56 | 2.6 | 4.3 | 0.00 | 0.00 | 0.00 | 73 | 1014.0 |
| 20260504060144 | 71 | 67 | 2.6 | 4.3 | 0.00 | 0.00 | 0.00 | 69 | 1015.0 |
| 20260504050142 | 70 | 57 | 2.6 | 2.6 | 0.00 | 0.00 | 0.00 | 61 | 1015.0 |
| 20260504045141 | 69 | 57 | 2.6 | 2.6 | 0.00 | 0.00 | 0.00 | 61 | 1015.0 |
| 20260504044141 | 68 | 57 | 2.6 | 2.6 | 0.00 | 0.00 | 0.00 | 61 | 1015.0 |
| 20260504043140 | 67 | 57 | 2.6 | 2.6 | 0.00 | 0.00 | 0.00 | 61 | 1015.0 |
| 20260504042140 | 74 | 50 | 0.9 | 0.9 | 0.00 | 0.00 | 0.00 | 56 | 1015.0 |
| 20260504041140 | 73 | 50 | 0.9 | 0.9 | 0.00 | 0.00 | 0.00 | 56 | 1015.0 |
| 20260504040140 | 72 | 50 | 0.9 | 0.9 | 0.00 | 0.00 | 0.00 | 56 | 1015.0 |
| 20260504035140 | 71 | 50 | 0.9 | 0.9 | 0.00 | 0.00 | 0.00 | 56 | 1015.0 |
| 20260504034139 | 70 | 50 | 0.9 | 0.9 | 0.00 | 0.00 | 0.00 | 56 | 1015.0 |
| 20260504033139 | 69 | 50 | 0.9 | 0.9 | 0.00 | 0.00 | 0.00 | 56 | 1015.0 |
| 20260504032138 | 68 | 50 | 1.7 | 0.9 | 0.00 | 0.00 | 0.00 | 56 | 1014.0 |
| 20260504031138 | 75 | 50 | 0.9 | 0.9 | 0.00 | 0.00 | 0.00 | 57 | 1014.0 |
| 20260504030138 | 74 | 50 | 0.9 | 0.9 | 0.00 | 0.00 | 0.00 | 57 | 1014.0 |
| 20260504025135 | 73 | 50 | 0.9 | 0.9 | 0.00 | 0.00 | 0.00 | 57 | 1014.0 |
| 20260504024135 | 72 | 50 | 1.7 | 0.9 | 0.00 | 0.00 | 0.00 | 57 | 1014.0 |
| 20260504023135 | 72 | 50 | 1.7 | 0.9 | 0.00 | 0.00 | 0.00 | 57 | 1014.0 |
| 20260504022134 | 76 | 59 | 0.9 | 2.6 | 0.00 | 0.00 | 0.00 | 54 | 1013.0 |
| 20260504021134 | 76 | 59 | 0.9 | 2.6 | 0.00 | 0.00 | 0.00 | 54 | 1013.0 |
| 20260504015134 | 75 | 59 | 0.9 | 2.6 | 0.00 | 0.00 | 0.00 | 54 | 1013.0 |
| 20260504014133 | 74 | 59 | 0.9 | 2.6 | 0.00 | 0.00 | 0.00 | 54 | 1013.0 |
| 20260504013133 | 73 | 59 | 1.7 | 2.6 | 0.00 | 0.00 | 0.00 | 54 | 1013.0 |
| 20260504012133 | 77 | 75 | 0.9 | 0.9 | 0.00 | 0.00 | 0.00 | 51 | 1012.0 |
| 20260504011133 | 76 | 75 | 0.9 | 0.9 | 0.00 | 0.00 | 0.00 | 51 | 1012.0 |
| 20260504010132 | 75 | 75 | 1.7 | 1.7 | 0.00 | 0.00 | 0.00 | 51 | 1012.0 |
| 20260504005132 | 77 | 75 | 1.7 | 1.7 | 0.00 | 0.00 | 0.00 | 48 | 1012.0 |
| 20260504004132 | 77 | 75 | 1.7 | 1.7 | 0.00 | 0.00 | 0.00 | 48 | 1012.0 |
| 20260504003131 | 79 | 95 | 6.1 | 15.6 | 0.00 | 0.00 | 0.00 | 41 | 1012.0 |
| 20260504002129 | 78 | 95 | 6.1 | 15.6 | 0.00 | 0.00 | 0.00 | 41 | 1011.0 |
| 20260504001128 | 81 | 95 | 6.1 | 15.6 | 0.00 | 0.00 | 0.00 | 41 | 1011.0 |
| 20260504000127 | 80 | 95 | 6.1 | 15.6 | 0.00 | 0.00 | 0.00 | 41 | 1011.0 |
| 20260503235127 | 82 | 95 | 6.1 | 15.6 | 0.00 | 0.00 | 0.00 | 41 | 1011.0 |
| 20260503234127 | 82 | 95 | 6.1 | 15.6 | 0.00 | 0.00 | 0.00 | 39 | 1010.0 |
| 20260503233126 | 85 | 98 | 7.0 | 9.6 | 0.00 | 0.00 | 0.00 | 33 | 1009.0 |
| 20260503232126 | 84 | 98 | 7.0 | 9.6 | 0.00 | 0.00 | 0.00 | 33 | 1009.0 |
| 20260503231126 | 83 | 98 | 7.8 | 9.6 | 0.00 | 0.00 | 0.00 | 33 | 1009.0 |
| 20260503230125 | 89 | 82 | 7.0 | 7.0 | 0.00 | 0.00 | 0.00 | 31 | 1009.0 |
| 20260503225125 | 89 | 82 | 7.0 | 7.0 | 0.00 | 0.00 | 0.00 | 31 | 1009.0 |
| 20260503224125 | 88 | 82 | 7.0 | 7.0 | 0.00 | 0.00 | 0.00 | 31 | 1009.0 |
| 20260503223124 | 87 | 82 | 7.0 | 7.0 | 0.00 | 0.00 | 0.00 | 31 | 1009.0 |
| 20260503222124 | 86 | 82 | 7.0 | 7.0 | 0.00 | 0.00 | 0.00 | 31 | 1009.0 |
| 20260503221124 | 85 | 82 | 7.0 | 7.0 | 0.00 | 0.00 | 0.00 | 31 | 1009.0 |
| 20260503220123 | 84 | 82 | 7.0 | 7.0 | 0.00 | 0.00 | 0.00 | 31 | 1009.0 |
| 20260503215123 | 83 | 82 | 7.0 | 7.0 | 0.00 | 0.00 | 0.00 | 31 | 1009.0 |
| 20260503214123 | 82 | 82 | 7.8 | 7.0 | 0.00 | 0.00 | 0.00 | 31 | 1009.0 |
| 20260503213122 | 94 | 77 | 7.0 | 6.1 | 0.00 | 0.00 | 0.00 | 30 | 1009.0 |
| 20260503212122 | 93 | 77 | 7.0 | 6.1 | 0.00 | 0.00 | 0.00 | 30 | 1009.0 |
| 20260503211121 | 92 | 77 | 7.0 | 6.1 | 0.00 | 0.00 | 0.00 | 30 | 1009.0 |
| 20260503210121 | 91 | 77 | 7.0 | 6.1 | 0.00 | 0.00 | 0.00 | 30 | 1009.0 |
| 20260503205121 | 90 | 77 | 7.0 | 6.1 | 0.00 | 0.00 | 0.00 | 30 | 1009.0 |
| 20260503204121 | 90 | 77 | 7.0 | 6.1 | 0.00 | 0.00 | 0.00 | 30 | 1009.0 |
| 20260503203120 | 89 | 77 | 7.0 | 6.1 | 0.00 | 0.00 | 0.00 | 30 | 1009.0 |
| 20260503202120 | 88 | 77 | 7.0 | 6.1 | 0.00 | 0.00 | 0.00 | 30 | 1010.0 |
| 20260503201119 | 87 | 77 | 7.0 | 6.1 | 0.00 | 0.00 | 0.00 | 30 | 1010.0 |
| 20260503200119 | 86 | 77 | 7.0 | 6.1 | 0.00 | 0.00 | 0.00 | 30 | 1010.0 |
| 20260503195119 | 85 | 77 | 7.0 | 6.1 | 0.00 | 0.00 | 0.00 | 30 | 1010.0 |
| 20260503194119 | 84 | 77 | 7.0 | 6.1 | 0.00 | 0.00 | 0.00 | 31 | 1010.0 |
| 20260503193118 | 84 | 77 | 7.0 | 6.1 | 0.00 | 0.00 | 0.00 | 30 | 1010.0 |
| 20260503192118 | 83 | 73 | 7.0 | 7.0 | 0.00 | 0.00 | 0.00 | 33 | 1011.0 |
| 20260503191117 | 83 | 73 | 7.0 | 7.0 | 0.00 | 0.00 | 0.00 | 32 | 1011.0 |
| 20260503190117 | 83 | 73 | 7.0 | 7.0 | 0.00 | 0.00 | 0.00 | 32 | 1011.0 |
| 20260503185117 | 83 | 73 | 7.0 | 7.0 | 0.00 | 0.00 | 0.00 | 32 | 1011.0 |
| 20260503184116 | 83 | 73 | 7.0 | 7.0 | 0.00 | 0.00 | 0.00 | 33 | 1011.0 |
| 20260503183116 | 82 | 73 | 7.0 | 7.0 | 0.00 | 0.00 | 0.00 | 33 | 1011.0 |
| 20260503182115 | 82 | 70 | 6.1 | 7.0 | 0.00 | 0.00 | 0.00 | 36 | 1012.0 |
| 20260503181115 | 82 | 70 | 6.1 | 7.0 | 0.00 | 0.00 | 0.00 | 36 | 1012.0 |
| 20260503180115 | 82 | 70 | 6.1 | 7.0 | 0.00 | 0.00 | 0.00 | 36 | 1012.0 |
| 20260503175114 | 82 | 70 | 6.1 | 7.0 | 0.00 | 0.00 | 0.00 | 36 | 1012.0 |
| 20260503174114 | 82 | 70 | 6.1 | 7.0 | 0.00 | 0.00 | 0.00 | 38 | 1012.0 |
| 20260503173114 | 82 | 70 | 6.1 | 7.0 | 0.00 | 0.00 | 0.00 | 38 | 1012.0 |
| 20260503172113 | 80 | 63 | 5.2 | 7.0 | 0.00 | 0.00 | 0.00 | 42 | 1013.0 |
| 20260503171113 | 80 | 63 | 5.2 | 7.0 | 0.00 | 0.00 | 0.00 | 42 | 1013.0 |
| 20260503170113 | 80 | 63 | 5.2 | 7.0 | 0.00 | 0.00 | 0.00 | 42 | 1013.0 |
| 20260503160111 | 78 | 64 | 4.3 | 7.8 | 0.00 | 0.00 | 0.00 | 56 | 1014.0 |
| 20260503150109 | 84 | 63 | 0.9 | 3.5 | 0.00 | 0.00 | 0.00 | 90 | 1014.0 |
| 20260503140106 | 78 | 63 | 0.9 | 3.5 | 0.00 | 0.00 | 0.00 | 90 | 1014.0 |